TimeCST,TemperatureF,Dew PointF,Humidity,Sea Level PressureIn,VisibilityMPH,Wind Direction,Wind SpeedMPH,Gust SpeedMPH,PrecipitationIn,Events,Conditions,WindDirDegrees,DateUTC
12:53 AM,61.0,46.9,60,29.55,-9999.0,West,6.9,-,N/A,,Clear,260,2013-02-26 06:53:00
1:53 AM,59.0,43.0,55,29.56,-9999.0,West,8.1,-,N/A,,Clear,270,2013-02-26 07:53:00
2:53 AM,57.0,43.0,59,29.58,-9999.0,West,4.6,-,N/A,,Clear,280,2013-02-26 08:53:00
3:53 AM,55.0,36.0,49,29.59,-9999.0,North,-9999.0,-,N/A,,Clear,0,2013-02-26 09:53:00
4:53 AM,52.0,36.0,54,29.61,-9999.0,West,5.8,-,N/A,,Clear,270,2013-02-26 10:53:00
5:53 AM,50.0,35.1,57,29.65,10.0,West,10.4,16.1,N/A,,Clear,280,2013-02-26 11:53:00
6:53 AM,48.0,34.0,58,29.70,-9999.0,West,13.8,19.6,N/A,,Clear,270,2013-02-26 12:53:00
7:53 AM,48.9,34.0,56,29.73,10.0,West,8.1,21.9,N/A,,Clear,270,2013-02-26 13:53:00
8:53 AM,51.1,36.0,56,29.75,-9999.0,WNW,13.8,19.6,N/A,,Clear,290,2013-02-26 14:53:00
9:53 AM,53.1,37.0,55,29.76,-9999.0,West,8.1,19.6,N/A,,Clear,260,2013-02-26 15:53:00
10:53 AM,54.0,39.0,57,29.77,-9999.0,West,10.4,19.6,N/A,,Clear,270,2013-02-26 16:53:00
11:53 AM,55.9,39.9,55,29.76,10.0,West,11.5,-,N/A,,Clear,270,2013-02-26 17:53:00
12:53 PM,57.9,39.0,49,29.75,-9999.0,West,9.2,20.7,N/A,,Clear,260,2013-02-26 18:53:00
1:53 PM,57.0,39.0,51,29.74,10.0,West,11.5,23.0,N/A,,Clear,270,2013-02-26 19:53:00
2:53 PM,57.9,39.9,51,29.74,10.0,West,9.2,-,N/A,,Clear,260,2013-02-26 20:53:00
3:53 PM,57.9,39.9,51,29.76,10.0,West,9.2,-,N/A,,Clear,260,2013-02-26 21:53:00
4:53 PM,55.9,41.0,57,29.78,10.0,WSW,8.1,-,N/A,,Clear,240,2013-02-26 22:53:00
5:53 PM,55.0,39.9,57,29.81,10.0,WSW,5.8,-,N/A,,Clear,250,2013-02-26 23:53:00
6:53 PM,54.0,41.0,62,29.84,-9999.0,Variable,4.6,-,N/A,,Clear,0,2013-02-27 00:53:00
7:53 PM,53.1,43.0,69,29.88,-9999.0,Calm,Calm,-,N/A,,Clear,0,2013-02-27 01:53:00
8:53 PM,51.1,45.0,80,29.90,10.0,Calm,Calm,-,N/A,,Clear,0,2013-02-27 02:53:00
9:53 PM,51.1,45.0,80,29.92,-9999.0,Calm,Calm,-,N/A,,Clear,0,2013-02-27 03:53:00
10:53 PM,51.1,44.1,77,29.93,-9999.0,Calm,Calm,-,N/A,,Clear,0,2013-02-27 04:53:00
11:53 PM,51.1,43.0,74,29.93,-9999.0,Calm,Calm,-,N/A,,Clear,0,2013-02-27 05:53:00